Weather in Novaya Kakhovka

Ukraine / Kherson District     46°45′00″N   33°21′32″E
temp.,
°C
wind,
m/s
gust,
m/s
humid.,
%
clouds,
%
prec.,
mm/h
press.,
hPa
HPBL,
m
3 march, wed
wed323:00+5nw5108182 0.0 1022563
02:00+3nw5107791 0.0 1023764
05:00+2nw5118374 0.0 1023514
08:00+2nnw5108148 0.0 1025644
11:00+7nnw68586 0.0 10261075
14:00+9nnw68463 0.0 10261561
17:00+7nnw47530 0.0 1026473
20:00+4nnw33690 0.0 102776
4 march, thu
thu423:00+2nw11800 0.0 102722
02:00+1ssw23810 0.0 102627
05:00+1ssw34820 0.0 102469
08:00+4sw59820 0.0 1023321
11:00+9sw710610 0.0 1021963
14:00+11sw8115710 0.0 10181144
17:00+8sw8136444 0.0 1016895
20:00+5sw7157837 0.0 1015588
5 march, fri
fri523:00+5sw714830 0.0 1015535
02:00+4sw5129111 0.0 1014416
05:00+4ssw5119466 0.0 1013315
08:00+6ssw6128861 0.0 1013475
11:00+11ssw7117084 0.0 1011717
14:00+13sw8115892 0.0 1009898
17:00+10sw596188 0.0 1009580
20:00+7sw367893 0.0 1011159
6 march, sat
sat623:00+6nnw378549 0.0 1012187
02:00+5n598672 0.0 1015444
05:00+3n61075100 0.0 1016650
08:00+2n6971100 0.0 1018639
11:00+4n6846100 0.0 10201197
14:00+5nnw6844100 0.0 10211515
17:00+4nnw6840100 0.0 10221929
20:00+1n395787 0.0 1025563
7 march, sun
sun723:00−1nw34530 0.0 102798
02:00−2wnw36590 0.0 1027212
05:00−2nw36660 0.0 1028182
08:00−1wnw34550 0.0 1028419
11:00+2w56310 0.0 10271477
14:00+4wsw67310 0.0 10251584
17:00+2wsw68380 0.0 1022967
20:00−1sw410510 0.0 1022314